Starlink 1011

operational
NORAD ID: 44717 Int'l Des: 2019-074 Owner: SPXS Country: US Constellation: starlink
LEOCIRCULAR

Starlink 1011について

説明を読み込み中...

リアルタイム位置

3D地球を読み込み中...

次回通過

高度履歴

Altitude vs Time

uPlot chart will show altitude changes over time

軌道要素

1 44717U 19074E 25306.58335647 .00190466 00000-0 72127-3 0 9999
2 44717 53.0483 18.5277 0004518 329.7236 79.4407 15.86617847 6097
Epoch: Nov 2, 2025 • Age: 33 hours

現在のステータス

高度 314.3 km
速度 7.72 km/s
衛星直下点 -24.03°S, 35.15°W
打ち上げ日 Nov 11, 2019
運用期間 5.9 years
タイプ internet

技術仕様

分類 Payload
質量 260.00 kg
乾燥質量 248.00 kg
総質量 260.00 kg
長さ 0.20 m
直径 2.80 m
スパン 9.00 m
形状 Box + pan
製造者 SPXS
バスタイプ Starlink
フェーズステータス In Orbit
所有者/国 SPXS/US

大規模コンステレーション

Loading constellations...